Regional Weather Roundup
Issued by NWS Goodland, KS

Home | Current Version | Previous Version | Text Only | Print | Product List | Glossary Off
Versions: 1 2 3 4 5 6 7 8 9 10 11 12 13 14 15 16 17 18 19 20 21 22 23 24 25 26 27 28 29 30 31 32 33 34 35 36 37 38 39 40 41 42 43 44 45 46 47 48 49 50

000
ASUS43 KGLD 011508
RWRGLD

GOODLAND FORECAST AREA HOURLY WEATHER ROUNDUP
NATIONAL WEATHER SERVICE GOODLAND KS
900 AM MDT SUN MAY 01 2016

...OFFICIAL OBSERVATIONS...

CITY           SKY/WX    TMP DP  RH WIND       PRES   REMARKS
GOODLAND KS    CLOUDY    36  35  96 N23G31    30.22R
HILL CITY KS   CLOUDY    44  38  79 N22       30.17R
IMPERIAL NEB   CLOUDY    40  36  86 NW17G24   30.25R
MCCOOK NEB     CLOUDY    42  38  85 N16       30.21R
AKRON CO       LGT SNOW  33  31  92 NW12      30.31R FOG
BURLINGTON CO  CLOUDY    36  33  89 N26G35    30.23R
LIMON CO       CLOUDY    32  31  96 N23       30.27R FOG     WCI  19
$$

...UNOFFICIAL OBSERVATIONS...

CITY           SKY/WX    TMP DP  RH WIND       PRES   REMARKS
COLBY KS       CLOUDY    39  39 100 NW16G24   30.22R
LENORA KS        N/A     40  32  73 MISG        N/A
NORTON KS      CLOUDY    41  36  81 NW9       30.18R
SHARON SPRINGS   N/A     39  35  87 N17G26      N/A
KIT CARSON CO    N/A     36  32  87 MISG        N/A
YUMA CO          N/A     34  33  95 NW12        N/A
$$




USA.gov is the U.S. government's official web portal to all federal, state and local government web resources and services.